Jackson, MN

12:58 PM CST on February 24, 2018 (GMT -0600)
Jackson Municipal

Weather History for KMJQ - March, 2014

Change the Weather History Date:

Thursday, March 6, 2014

  Actual Average Record
Temperature  
Mean Temperature 26 °F -  
Max Temperature 32 °F 29 °F 69 °F (2017)
Min Temperature 19 °F 15 °F 1 °F (2007)
Degree Days  
Heating Degree Days 40    
Moisture  
Dew Point 22 °F    
Average Humidity 84    
Maximum Humidity 93    
Minimum Humidity 74    
Precipitation  
Precipitation 0.00 in - - ()
Sea Level Pressure  
Sea Level Pressure 29.98 in    
Wind  
Wind Speed 19 mph (South)    
Max Wind Speed 29 mph    
Max Gust Speed 37 mph    
Visibility 3 miles    
Events Snow    
Averages and records for this station are not official NWS values.
T = Trace of Precipitation, MM = Missing Value Source: NWS Daily Summary

Daily Weather History Graph

Daily Weather History Graph

Search for Another Location

Airport or City:

Trip Planner

Search our weather history database for the weather conditions in past years. The results will help you decide how hot, cold, wet, or windy it might be!

Date:

Astronomy

Mar. 06, 2014 Rise Set
Actual Time 6:47 AM CST 6:15 PM CST
Civil Twilight 6:19 AM CST 6:43 PM CST
Nautical Twilight 5:46 AM CST 7:16 PM CST
Astronomical Twilight 5:12 AM CST 7:50 PM CST
Moon 9:45 AM CST (3/6) No Moon Set
Length of Visible Light 12h 24m
Length of Day
11h 27m
Waxing Crescent, 32% of the Moon is Illuminated
Mar 6
Waxing Crescent
Mar 8
First Quarter
Mar 16
Full
Mar 23
Last Quarter
Mar 30
New

Hourly Weather History & Observations

Time (CST) Temp. Windchill Dew Point Humidity Pressure Visibility Wind Dir Wind Speed Gust Speed Precip Events Conditions
12:13 AM 19.4 °F 5.0 °F 14.0 °F 80% 30.25 in 7.0 mi SSE 16.1 mph - N/A   Overcast
12:32 AM 19.4 °F 5.5 °F 14.0 °F 80% 30.25 in 7.0 mi South 15.0 mph 19.6 mph N/A   Overcast
12:52 AM 19.4 °F 5.5 °F 14.0 °F 80% 30.24 in 7.0 mi South 15.0 mph - N/A   Overcast
1:13 AM 19.4 °F 5.5 °F 14.0 °F 80% 30.23 in 7.0 mi South 15.0 mph 25.3 mph N/A   Overcast
1:32 AM 19.4 °F 4.5 °F 14.0 °F 80% 30.23 in 7.0 mi South 17.3 mph - N/A   Overcast
1:52 AM 19.4 °F 4.1 °F 14.0 °F 80% 30.22 in 5.0 mi South 18.4 mph 24.2 mph N/A   Overcast
2:12 AM 19.4 °F 3.2 °F 14.0 °F 80% 30.22 in 4.0 mi South 20.7 mph 26.5 mph N/A Snow Light Snow
2:32 AM 19.4 °F 3.2 °F 15.8 °F 86% 30.20 in 3.0 mi South 20.7 mph 26.5 mph N/A Snow Light Snow
2:53 AM 19.4 °F 3.6 °F 14.0 °F 80% 30.19 in 1.5 mi South 19.6 mph 25.3 mph N/A Snow Light Snow
3:12 AM 19.4 °F 4.1 °F 14.0 °F 80% 30.19 in 2.0 mi South 18.4 mph 25.3 mph N/A Snow Light Snow
3:32 AM 19.4 °F 4.1 °F 14.0 °F 80% 30.19 in 3.0 mi South 18.4 mph 24.2 mph N/A Snow Light Snow
3:53 AM 19.4 °F 6.0 °F 14.0 °F 80% 30.18 in 4.0 mi South 13.8 mph - N/A Snow Light Snow
4:12 AM 19.4 °F 5.5 °F 14.0 °F 80% 30.17 in 5.0 mi South 15.0 mph - N/A   Mostly Cloudy
4:32 AM 19.4 °F 5.5 °F 15.8 °F 86% 30.16 in 5.0 mi South 15.0 mph 19.6 mph N/A   Mostly Cloudy
4:53 AM 19.4 °F 4.5 °F 15.8 °F 86% 30.15 in 4.0 mi South 17.3 mph 24.2 mph N/A Snow Light Snow
5:12 AM 19.4 °F 5.0 °F 15.8 °F 86% 30.16 in 4.0 mi South 16.1 mph 24.2 mph N/A   Overcast
5:32 AM 19.4 °F 4.1 °F 15.8 °F 86% 30.15 in 3.0 mi South 18.4 mph 24.2 mph N/A Snow Light Snow
5:53 AM 19.4 °F 5.5 °F 15.8 °F 86% 30.14 in 3.0 mi South 15.0 mph 23.0 mph N/A Snow Light Snow
6:12 AM 19.4 °F 5.0 °F 17.6 °F 93% 30.12 in 3.0 mi South 16.1 mph - N/A Snow Light Snow
6:32 AM 21.2 °F 6.8 °F 17.6 °F 86% 30.12 in 3.0 mi South 17.3 mph 25.3 mph N/A Snow Light Snow
6:52 AM 21.2 °F 7.3 °F 17.6 °F 86% 30.10 in 2.0 mi South 16.1 mph 24.2 mph N/A Snow Light Snow
7:12 AM 21.2 °F 6.4 °F 17.6 °F 86% 30.11 in 2.0 mi South 18.4 mph 21.9 mph N/A Snow Light Snow
7:33 AM 21.2 °F 6.8 °F 17.6 °F 86% 30.10 in 2.0 mi South 17.3 mph 23.0 mph N/A   Overcast
7:52 AM 21.2 °F 6.0 °F 17.6 °F 86% 30.10 in 2.0 mi South 19.6 mph - N/A   Overcast
8:12 AM 21.2 °F 6.4 °F 17.6 °F 86% 30.09 in 2.0 mi South 18.4 mph - N/A   Overcast
8:33 AM 21.2 °F 6.8 °F 19.4 °F 93% 30.09 in 2.0 mi South 17.3 mph 24.2 mph N/A   Overcast
8:52 AM 21.2 °F 5.2 °F 19.4 °F 93% 30.08 in 2.0 mi South 21.9 mph 27.6 mph N/A   Overcast
9:13 AM 23.0 °F 7.2 °F 19.4 °F 86% 30.07 in 1.8 mi South 23.0 mph 29.9 mph N/A   Overcast
9:32 AM 23.0 °F 8.0 °F 19.4 °F 86% - 1.2 mi South 20.7 mph 33.4 mph N/A   Haze
9:52 AM 23.0 °F 6.9 °F 19.4 °F 86% 30.03 in 1.0 mi South 24.2 mph 33.4 mph N/A   Overcast
10:13 AM 24.8 °F 8.4 °F 19.4 °F 80% 30.02 in 1.0 mi South 27.6 mph 35.7 mph N/A   Haze
10:32 AM 24.8 °F 9.3 °F 21.2 °F 86% 30.02 in 1.0 mi South 24.2 mph 31.1 mph N/A   Overcast
10:52 AM 26.6 °F 10.6 °F 21.2 °F 80% 30.01 in 1.0 mi South 28.8 mph 33.4 mph N/A   Haze
11:13 AM 26.6 °F 11.7 °F 21.2 °F 80% 30.00 in 1.0 mi South 24.2 mph 33.4 mph N/A   Haze
11:32 AM 26.6 °F 11.7 °F 21.2 °F 80% 29.99 in 1.0 mi South 24.2 mph 29.9 mph N/A   Haze
11:52 AM 26.6 °F 12.0 °F 21.2 °F 80% 29.98 in 1.2 mi South 23.0 mph 28.8 mph N/A   Haze
12:13 PM 28.4 °F 15.1 °F 21.2 °F 74% 29.98 in 1.8 mi South 20.7 mph 31.1 mph N/A   Haze
12:32 PM 28.4 °F 14.7 °F 23.0 °F 80% 29.98 in 1.2 mi South 21.9 mph 28.8 mph N/A   Haze
12:52 PM 28.4 °F 14.7 °F 23.0 °F 80% 29.96 in 1.5 mi South 21.9 mph 29.9 mph N/A   Haze
1:13 PM 28.4 °F 14.4 °F 23.0 °F 80% 29.95 in 1.8 mi South 23.0 mph 27.6 mph N/A   Haze
1:32 PM 30.2 °F 16.5 °F 24.8 °F 80% 29.93 in 1.5 mi South 24.2 mph 29.9 mph N/A   Haze
1:52 PM 30.2 °F 16.8 °F 24.8 °F 80% 29.91 in 1.5 mi South 23.0 mph 32.2 mph N/A   Haze
2:13 PM 30.2 °F 16.8 °F 26.6 °F 86% 29.89 in 1.8 mi South 23.0 mph 28.8 mph N/A   Haze
2:32 PM 30.2 °F 16.8 °F 26.6 °F 86% 29.88 in 1.8 mi South 23.0 mph 31.1 mph N/A   Haze
2:52 PM 32.0 °F 18.9 °F 26.6 °F 80% 29.87 in 1.8 mi South 24.2 mph 36.8 mph N/A   Haze
3:13 PM 32.0 °F 19.5 °F 26.6 °F 80% 29.86 in 2.0 mi South 21.9 mph 28.8 mph N/A   Haze
3:33 PM 32.0 °F 19.8 °F 26.6 °F 80% 29.86 in 2.0 mi South 20.7 mph 31.1 mph N/A   Haze
3:52 PM 32.0 °F 18.9 °F 26.6 °F 80% 29.85 in 2.0 mi South 24.2 mph 29.9 mph N/A   Haze
4:12 PM 32.0 °F 19.5 °F 26.6 °F 80% 29.85 in 2.0 mi South 21.9 mph 29.9 mph N/A   Haze
4:32 PM 32.0 °F 20.1 °F 28.4 °F 87% 29.85 in 2.5 mi South 19.6 mph 25.3 mph N/A   Overcast
4:53 PM 32.0 °F 19.5 °F 28.4 °F 87% 29.84 in 2.5 mi South 21.9 mph - N/A   Overcast
5:12 PM 32.0 °F 19.5 °F 26.6 °F 80% 29.83 in 2.5 mi South 21.9 mph 29.9 mph N/A   Haze
5:32 PM 32.0 °F 20.5 °F 26.6 °F 80% 29.83 in 2.5 mi South 18.4 mph 26.5 mph N/A   Haze
5:53 PM 30.2 °F 17.4 °F 26.6 °F 86% 29.83 in 2.5 mi South 20.7 mph - N/A   Mist
6:12 PM 30.2 °F 18.5 °F 26.6 °F 86% 29.82 in 2.5 mi South 17.3 mph - N/A   Clear
6:32 PM 30.2 °F 18.1 °F 26.6 °F 86% 29.82 in 3.0 mi South 18.4 mph 24.2 mph N/A   Clear
6:53 PM 30.2 °F 18.9 °F 26.6 °F 86% 29.82 in 4.0 mi South 16.1 mph 21.9 mph N/A   Clear
7:12 PM 30.2 °F 18.1 °F 26.6 °F 86% 29.81 in 4.0 mi South 18.4 mph - N/A   Clear
7:32 PM 32.0 °F 20.8 °F 26.6 °F 80% 29.82 in 4.0 mi South 17.3 mph - N/A   Haze
7:53 PM 32.0 °F 20.5 °F 26.6 °F 80% 29.80 in 4.0 mi South 18.4 mph - N/A   Haze
8:12 PM 32.0 °F 20.8 °F 28.4 °F 87% 29.80 in 5.0 mi South 17.3 mph - N/A   Clear
8:32 PM 32.0 °F 20.5 °F 28.4 °F 87% 29.79 in 5.0 mi South 18.4 mph - N/A   Clear
8:53 PM 32.0 °F 20.5 °F 28.4 °F 87% 29.79 in 5.0 mi South 18.4 mph 24.2 mph N/A   Clear
9:12 PM 32.0 °F 20.5 °F 28.4 °F 87% 29.79 in 4.0 mi South 18.4 mph 25.3 mph N/A   Clear
9:32 PM 32.0 °F 20.5 °F 28.4 °F 87% 29.78 in 4.0 mi South 18.4 mph 23.0 mph N/A   Clear
9:53 PM 32.0 °F 20.1 °F 28.4 °F 87% 29.77 in 4.0 mi South 19.6 mph - N/A   Clear
10:12 PM 32.0 °F 20.5 °F 28.4 °F 87% 29.78 in 4.0 mi South 18.4 mph - N/A   Clear
10:33 PM 32.0 °F 20.5 °F 28.4 °F 87% 29.78 in 3.0 mi South 18.4 mph - N/A   Clear
10:52 PM 30.2 °F 18.1 °F 28.4 °F 93% 29.76 in 3.0 mi South 18.4 mph - N/A   Clear
11:13 PM 32.0 °F 20.1 °F 28.4 °F 87% 29.76 in 3.0 mi South 19.6 mph - N/A   Clear
11:33 PM 30.2 °F 18.1 °F 28.4 °F 93% 29.74 in 3.0 mi South 18.4 mph - N/A   Clear
11:52 PM 30.2 °F 18.1 °F 28.4 °F 93% 29.74 in 3.0 mi South 18.4 mph - N/A   Clear